| time (UTC) | temp C | wind direction | speed KPH | gust KPH | rain 1hr cm | rain 24hr cm | rain mn cm | humidity % | barometer mb |
| 20260502170511 | 21 | 0.0 | 0.0 | 0.00 | 4.98 | 0.00 | 53 | 1020.9 | |
| 20260502164007 | 20 | 0.0 | 0.0 | 0.00 | 5.00 | 0.00 | 57 | 1021.0 | |
| 20260502163505 | 20 | 0.0 | 0.0 | 0.00 | 5.00 | 0.00 | 58 | 1020.9 | |
| 20260502163034 | 20 | 0.0 | 0.0 | 0.00 | 5.00 | 0.00 | 58 | 1020.9 | |
| 20260502162508 | 20 | 0.0 | 0.0 | 0.00 | 5.03 | 0.00 | 58 | 1021.0 | |
| 20260502162016 | 20 | 0.0 | 0.0 | 0.00 | 5.03 | 0.00 | 58 | 1020.9 | |
| 20260502161008 | 20 | 0.0 | 0.0 | 0.00 | 5.11 | 0.00 | 61 | 1020.9 | |
| 20260502152002 | 18 | 0.0 | 0.0 | 0.00 | 5.61 | 0.00 | 64 | 1020.6 | |
| 20260502151504 | 18 | 0.0 | 0.0 | 0.00 | 5.61 | 0.00 | 66 | 1020.5 | |
| 20260502151003 | 17 | 0.0 | 0.0 | 0.00 | 5.61 | 0.00 | 66 | 1020.6 | |
| 20260502150502 | 17 | 0.0 | 0.0 | 0.00 | 5.61 | 0.00 | 67 | 1020.7 | |
| 20260502130508 | 12 | 0.0 | 0.0 | 0.00 | 6.25 | 0.00 | 86 | 1019.6 | |
| 20260502123503 | 11 | 0.0 | 0.0 | 0.00 | 6.48 | 0.00 | 88 | 1018.9 | |
| 20260502123009 | 11 | 0.0 | 0.0 | 0.00 | 6.48 | 0.00 | 88 | 1018.8 | |
| 20260502122505 | 11 | 0.0 | 0.0 | 0.00 | 6.48 | 0.00 | 88 | 1018.7 | |
| 20260502122008 | 11 | 0.0 | 0.0 | 0.00 | 6.48 | 0.00 | 88 | 1018.7 | |
| 20260502121512 | 11 | 0.0 | 0.0 | 0.00 | 6.48 | 0.00 | 88 | 1018.7 | |
| 20260502121007 | 11 | 0.0 | 0.0 | 0.00 | 6.50 | 0.00 | 88 | 1018.6 | |
| 20260502120510 | 11 | 0.0 | 0.0 | 0.00 | 6.50 | 0.00 | 88 | 1018.6 | |
| 20260502115507 | 11 | 0.0 | 0.0 | 0.00 | 6.50 | 0.00 | 87 | 1018.5 | |
| 20260502115008 | 11 | 0.0 | 0.0 | 0.00 | 6.50 | 0.00 | 87 | 1018.4 | |
| 20260502114520 | 11 | 0.0 | 0.0 | 0.00 | 6.50 | 0.00 | 87 | 1018.3 | |
| 20260502114011 | 11 | 0.0 | 0.0 | 0.00 | 6.50 | 0.00 | 87 | 1018.4 | |
| 20260502113506 | 11 | 0.0 | 0.0 | 0.00 | 6.50 | 0.00 | 87 | 1018.3 | |
| 20260502112502 | 11 | 0.0 | 0.0 | 0.00 | 6.50 | 0.00 | 87 | 1018.4 | |
| 20260502112003 | 11 | 0.0 | 0.0 | 0.00 | 6.50 | 0.00 | 86 | 1018.4 | |
| 20260502111507 | 11 | 0.0 | 0.0 | 0.00 | 6.50 | 0.00 | 86 | 1018.3 | |
| 20260502111003 | 11 | 0.0 | 0.0 | 0.00 | 6.50 | 0.00 | 86 | 1018.3 | |
| 20260502110508 | 11 | 0.0 | 0.0 | 0.00 | 6.50 | 0.00 | 86 | 1018.1 | |
| 20260502110016 | 11 | 0.0 | 0.0 | 0.00 | 6.50 | 0.00 | 86 | 1018.0 | |
| 20260502105509 | 11 | 0.0 | 0.0 | 0.00 | 6.53 | 0.00 | 86 | 1018.0 | |
| 20260502105008 | 11 | 0.0 | 0.0 | 0.00 | 6.53 | 0.00 | 85 | 1017.8 | |
| 20260502104519 | 11 | 0.0 | 0.0 | 0.00 | 6.53 | 0.00 | 85 | 1017.9 | |
| 20260502104007 | 11 | 0.0 | 0.0 | 0.00 | 6.53 | 0.00 | 85 | 1017.9 | |
| 20260502103511 | 12 | 0.0 | 0.0 | 0.00 | 6.53 | 0.00 | 85 | 1017.8 | |
| 20260502103022 | 12 | 0.0 | 0.0 | 0.00 | 6.53 | 0.00 | 85 | 1017.8 | |
| 20260502102510 | 12 | 0.0 | 0.0 | 0.00 | 6.55 | 0.00 | 84 | 1017.8 | |
| 20260502102012 | 12 | 0.0 | 0.0 | 0.00 | 6.55 | 0.00 | 84 | 1017.8 | |
| 20260502101510 | 12 | 0.0 | 0.0 | 0.00 | 6.55 | 0.00 | 84 | 1017.6 | |
| 20260502101006 | 12 | 0.0 | 0.0 | 0.00 | 6.55 | 0.00 | 84 | 1017.6 | |
| 20260502100503 | 12 | 0.0 | 0.0 | 0.00 | 6.58 | 0.00 | 84 | 1017.5 | |
| 20260502091525 | 12 | 0.0 | 0.0 | 0.00 | 6.78 | 0.00 | 83 | 1016.4 | |
| 20260502091009 | 12 | 0.0 | 0.0 | 0.00 | 6.88 | 0.00 | 83 | 1016.3 | |
| 20260502090509 | 12 | 0.0 | 0.0 | 0.00 | 7.49 | 0.00 | 83 | 1016.2 | |
| 20260502071521 | 12 | 0.0 | 0.0 | 0.00 | 9.02 | 0.00 | 87 | 1016.0 | |
| 20260502070517 | 12 | 0.0 | 0.0 | 0.00 | 9.07 | 0.00 | 87 | 1016.0 | |
| 20260502070022 | 12 | 0.0 | 0.0 | 0.00 | 9.09 | 0.00 | 87 | 1016.1 | |
| 20260502065510 | 12 | 0.0 | 0.0 | 0.00 | 9.09 | 0.00 | 87 | 1016.2 | |
| 20260502065016 | 12 | 0.0 | 0.0 | 0.00 | 9.12 | 0.00 | 87 | 1016.2 | |
| 20260502064529 | 12 | 0.0 | 0.0 | 0.00 | 9.14 | 0.00 | 87 | 1016.2 | |
| 20260502064010 | 12 | 0.0 | 0.0 | 0.00 | 9.14 | 0.00 | 87 | 1016.2 | |
| 20260502063510 | 12 | 0.0 | 0.0 | 0.00 | 9.14 | 0.00 | 87 | 1016.2 | |
| 20260502063024 | 12 | 0.0 | 0.0 | 0.00 | 9.17 | 0.00 | 87 | 1016.2 | |
| 20260502062508 | 12 | 0.0 | 0.0 | 0.00 | 9.19 | 0.00 | 88 | 1016.1 | |
| 20260502062009 | 12 | 0.0 | 0.0 | 0.00 | 9.19 | 0.00 | 88 | 1016.0 | |
| 20260502061521 | 12 | 0.0 | 0.0 | 0.00 | 9.19 | 0.00 | 88 | 1015.9 | |
| 20260502060502 | 12 | 0.0 | 0.0 | 0.00 | 9.19 | 0.00 | 88 | 1015.8 | |
| 20260502060002 | 12 | 0.0 | 0.0 | 0.00 | 9.19 | 0.00 | 89 | 1015.8 | |
| 20260502055503 | 12 | 0.0 | 0.0 | 0.00 | 9.19 | 0.00 | 89 | 1015.9 | |
| 20260502055003 | 12 | 0.0 | 0.0 | 0.00 | 9.22 | 0.00 | 89 | 1015.9 | |
| 20260502054507 | 12 | 0.0 | 0.0 | 0.00 | 9.22 | 0.00 | 89 | 1015.8 | |
| 20260502054003 | 12 | 0.0 | 0.0 | 0.00 | 9.22 | 0.00 | 90 | 1015.8 | |
| 20260502053506 | 12 | 0.0 | 0.0 | 0.00 | 9.22 | 0.00 | 90 | 1015.9 | |
| 20260502053012 | 12 | 0.0 | 0.0 | 0.00 | 9.22 | 0.00 | 90 | 1015.9 | |
| 20260502052504 | 12 | 0.0 | 0.0 | 0.00 | 9.25 | 0.00 | 90 | 1015.9 | |
| 20260502052009 | 12 | 0.0 | 0.0 | 0.00 | 9.27 | 0.00 | 90 | 1015.8 | |
| 20260502051519 | 12 | 0.0 | 0.0 | 0.00 | 9.27 | 0.00 | 90 | 1015.7 | |
| 20260502051005 | 12 | 0.0 | 0.0 | 0.00 | 9.30 | 0.00 | 90 | 1015.7 | |
| 20260502050505 | 12 | 0.0 | 0.0 | 0.00 | 9.32 | 0.00 | 90 | 1015.6 | |
| 20260502050020 | 12 | 0.0 | 0.0 | 0.00 | 9.35 | 0.00 | 91 | 1015.7 | |
| 20260502045511 | 12 | 0.0 | 0.0 | 0.00 | 9.35 | 9.35 | 91 | 1015.6 | |
| 20260502045003 | 12 | 0.0 | 0.0 | 0.00 | 9.35 | 9.35 | 91 | 1015.5 | |
| 20260502044504 | 12 | 0.0 | 0.0 | 0.00 | 9.40 | 9.35 | 91 | 1015.3 | |
| 20260502044002 | 12 | 0.0 | 0.0 | 0.00 | 9.60 | 9.35 | 91 | 1015.3 | |
| 20260502043503 | 12 | 0.0 | 0.0 | 0.00 | 10.08 | 9.35 | 91 | 1015.3 | |
| 20260502043009 | 12 | 0.0 | 0.0 | 0.00 | 10.36 | 9.35 | 91 | 1015.3 | |
| 20260502042504 | 12 | 0.0 | 0.0 | 0.00 | 10.36 | 9.35 | 91 | 1015.4 | |
| 20260502042007 | 12 | 0.0 | 0.0 | 0.00 | 10.36 | 9.35 | 91 | 1015.6 | |
| 20260502041512 | 12 | 0.0 | 0.0 | 0.00 | 10.36 | 9.35 | 91 | 1015.7 | |
| 20260502041006 | 12 | 0.0 | 0.0 | 0.00 | 10.36 | 9.35 | 91 | 1015.7 | |
| 20260502040507 | 12 | 0.0 | 0.0 | 0.00 | 10.36 | 9.35 | 91 | 1015.5 | |
| 20260502040016 | 12 | 0.0 | 0.0 | 0.00 | 10.36 | 9.35 | 91 | 1015.5 | |
| 20260502035508 | 12 | 0.0 | 0.0 | 0.00 | 10.36 | 9.35 | 91 | 1015.4 | |
| 20260502035009 | 12 | 0.0 | 0.0 | 0.00 | 10.36 | 9.35 | 91 | 1015.4 | |
| 20260502034521 | 12 | 0.0 | 0.0 | 0.00 | 10.36 | 9.35 | 92 | 1015.5 | |
| 20260502034008 | 12 | 0.0 | 0.0 | 0.03 | 10.36 | 9.35 | 92 | 1015.6 | |
| 20260502033511 | 12 | 0.0 | 0.0 | 0.03 | 10.36 | 9.35 | 92 | 1015.6 | |
| 20260502033006 | 12 | 0.0 | 0.0 | 0.03 | 10.36 | 9.35 | 92 | 1015.5 | |
| 20260502032504 | 12 | 0.0 | 0.0 | 0.03 | 10.36 | 9.35 | 92 | 1015.4 | |
| 20260502032006 | 12 | 0.0 | 0.0 | 0.03 | 10.36 | 9.35 | 92 | 1015.2 | |
| 20260502031512 | 13 | 0.0 | 0.0 | 0.03 | 10.36 | 9.35 | 92 | 1015.0 | |
| 20260502031005 | 13 | 0.0 | 0.0 | 0.03 | 10.36 | 9.35 | 92 | 1015.1 | |
| 20260502030504 | 13 | 0.0 | 0.0 | 0.03 | 10.36 | 9.35 | 92 | 1015.1 | |
| 20260502030014 | 13 | 0.0 | 0.0 | 0.03 | 10.36 | 9.35 | 92 | 1014.9 | |
| 20260502025513 | 13 | 0.0 | 0.0 | 0.05 | 10.36 | 9.35 | 92 | 1014.8 | |
| 20260502025007 | 13 | 0.0 | 0.0 | 0.08 | 10.36 | 9.35 | 92 | 1014.6 | |
| 20260502024525 | 13 | 0.0 | 0.0 | 0.08 | 10.36 | 9.35 | 92 | 1014.5 | |
| 20260502024008 | 13 | 0.0 | 0.0 | 0.08 | 10.34 | 9.32 | 92 | 1014.3 | |
| 20260502023510 | 13 | 0.0 | 0.0 | 0.10 | 10.34 | 9.32 | 92 | 1014.0 | |
| 20260502023022 | 13 | 0.0 | 0.0 | 0.15 | 10.34 | 9.32 | 92 | 1013.9 | |
| 20260502022510 | 13 | 0.0 | 0.0 | 0.18 | 10.34 | 9.32 | 92 | 1014.0 | |
| 20260502022009 | 13 | 0.0 | 0.0 | 0.20 | 10.34 | 9.32 | 92 | 1013.8 | |
| 20260502021507 | 13 | 0.0 | 0.0 | 0.23 | 10.34 | 9.32 | 92 | 1013.8 | |
| 20260502021003 | 13 | 0.0 | 0.0 | 0.23 | 10.34 | 9.32 | 92 | 1013.8 | |
| 20260502020504 | 13 | 0.0 | 0.0 | 0.25 | 10.34 | 9.32 | 92 | 1013.5 | |
| 20260502020012 | 13 | 0.0 | 0.0 | 0.28 | 10.34 | 9.32 | 92 | 1013.2 | |
| 20260502015510 | 13 | 0.0 | 0.0 | 0.28 | 10.31 | 9.30 | 92 | 1013.6 | |
| 20260502015005 | 13 | 0.0 | 0.0 | 0.30 | 10.29 | 9.27 | 92 | 1013.4 | |
| 20260502014514 | 13 | 0.0 | 0.0 | 0.36 | 10.29 | 9.27 | 92 | 1013.3 | |
| 20260502014014 | 14 | 0.0 | 0.0 | 0.36 | 10.26 | 9.25 | 92 | 1013.4 | |
| 20260502013508 | 14 | 0.0 | 0.0 | 0.33 | 10.24 | 9.22 | 92 | 1013.1 | |
| 20260502013020 | 14 | 0.0 | 0.0 | 0.28 | 10.19 | 9.17 | 92 | 1013.2 | |
| 20260502012508 | 14 | 0.0 | 0.0 | 0.28 | 10.16 | 9.14 | 92 | 1013.2 | |
| 20260502012013 | 14 | 0.0 | 0.0 | 0.25 | 10.13 | 9.12 | 92 | 1013.1 | |
| 20260502011522 | 14 | 0.0 | 0.0 | 0.28 | 10.11 | 9.09 | 92 | 1013.1 | |
| 20260502011008 | 14 | 0.0 | 0.0 | 0.28 | 10.11 | 9.09 | 92 | 1013.0 | |
| 20260502010513 | 14 | 0.0 | 0.0 | 0.30 | 10.08 | 9.07 | 92 | 1012.9 | |
| 20260502010020 | 14 | 0.0 | 0.0 | 0.33 | 10.06 | 9.04 | 92 | 1012.7 | |
| 20260502005506 | 14 | 0.0 | 0.0 | 0.36 | 10.03 | 9.02 | 92 | 1012.6 | |
| 20260502005010 | 14 | 0.0 | 0.0 | 0.33 | 9.98 | 8.97 | 92 | 1012.5 | |
| 20260502004516 | 14 | 0.0 | 0.0 | 0.33 | 9.93 | 8.92 | 92 | 1013.0 | |
| 20260502004010 | 14 | 0.0 | 0.0 | 0.36 | 9.91 | 8.89 | 92 | 1013.1 | |
| 20260502003508 | 15 | 0.0 | 0.0 | 0.41 | 9.91 | 8.89 | 92 | 1013.6 | |
| 20260502003016 | 15 | 0.0 | 0.0 | 0.48 | 9.91 | 8.89 | 92 | 1012.8 | |
| 20260502002508 | 15 | 0.0 | 0.0 | 0.48 | 9.88 | 8.86 | 92 | 1012.2 | |
| 20260502002011 | 15 | 0.0 | 0.0 | 0.48 | 9.88 | 8.86 | 92 | 1011.9 | |
| 20260502001522 | 15 | 0.0 | 0.0 | 0.43 | 9.83 | 8.81 | 92 | 1011.8 | |
| 20260502001012 | 15 | 0.0 | 0.0 | 0.43 | 9.83 | 8.81 | 92 | 1011.9 | |
| 20260502000509 | 15 | 0.0 | 0.0 | 0.41 | 9.78 | 8.76 | 92 | 1012.1 | |
| 20260502000025 | 15 | 0.0 | 0.0 | 0.38 | 9.73 | 8.71 | 92 | 1012.1 | |
| 20260501235511 | 15 | 0.0 | 0.0 | 0.41 | 9.68 | 8.66 | 92 | 1011.8 | |
| 20260501235016 | 15 | 0.0 | 0.0 | 0.53 | 9.65 | 8.64 | 92 | 1012.2 | |
| 20260501234529 | 15 | 0.0 | 0.0 | 0.58 | 9.60 | 8.59 | 92 | 1012.1 | |
| 20260501234003 | 15 | 0.0 | 0.0 | 0.58 | 9.55 | 8.53 | 92 | 1012.4 | |
| 20260501233510 | 15 | 0.0 | 0.0 | 0.53 | 9.50 | 8.48 | 92 | 1012.7 | |
| 20260501233016 | 15 | 0.0 | 0.0 | 0.46 | 9.42 | 8.41 | 92 | 1012.4 | |
| 20260501232509 | 15 | 0.0 | 0.0 | 0.43 | 9.40 | 8.38 | 92 | 1012.0 | |
| 20260501232007 | 15 | 0.0 | 0.0 | 0.43 | 9.40 | 8.38 | 92 | 1011.3 | |
| 20260501231520 | 15 | 0.0 | 0.0 | 0.43 | 9.40 | 8.38 | 92 | 1010.6 | |
| 20260501231008 | 15 | 0.0 | 0.0 | 0.46 | 9.40 | 8.38 | 92 | 1010.3 | |
| 20260501230508 | 15 | 0.0 | 0.0 | 0.43 | 9.37 | 8.36 | 92 | 1009.8 | |
| 20260501230024 | 15 | 0.0 | 0.0 | 0.41 | 9.35 | 8.33 | 92 | 1010.2 | |
| 20260501225511 | 15 | 0.0 | 0.0 | 0.33 | 9.27 | 8.26 | 92 | 1011.0 | |
| 20260501225004 | 15 | 0.0 | 0.0 | 0.18 | 9.12 | 8.10 | 92 | 1010.7 | |
| 20260501224509 | 15 | 0.0 | 0.0 | 0.08 | 9.02 | 8.00 | 92 | 1011.1 | |
| 20260501224006 | 15 | 0.0 | 0.0 | 0.03 | 8.97 | 7.95 | 92 | 1011.6 | |
| 20260501223503 | 15 | 0.0 | 0.0 | 0.03 | 8.97 | 7.95 | 92 | 1010.7 | |
| 20260501223014 | 15 | 0.0 | 0.0 | 0.03 | 8.97 | 7.95 | 92 | 1010.0 | |
| 20260501222507 | 15 | 0.0 | 0.0 | 0.03 | 8.97 | 7.95 | 92 | 1009.9 | |
| 20260501222013 | 15 | 0.0 | 0.0 | 0.03 | 8.97 | 7.95 | 92 | 1010.1 | |
| 20260501221517 | 15 | 0.0 | 0.0 | 0.05 | 8.97 | 7.95 | 92 | 1009.9 | |
| 20260501221008 | 16 | 0.0 | 0.0 | 0.05 | 8.94 | 7.92 | 92 | 1009.8 | |
| 20260501220502 | 16 | 0.0 | 0.0 | 0.10 | 8.94 | 7.92 | 92 | 1009.8 | |
| 20260501220011 | 16 | 0.0 | 0.0 | 0.10 | 8.94 | 7.92 | 92 | 1009.9 | |
| 20260501215504 | 16 | 0.0 | 0.0 | 0.13 | 8.94 | 7.92 | 92 | 1010.1 | |
| 20260501215009 | 16 | 0.0 | 0.0 | 0.15 | 8.94 | 7.92 | 92 | 1010.2 | |
| 20260501214508 | 16 | 0.0 | 0.0 | 0.18 | 8.94 | 7.92 | 92 | 1010.3 | |
| 20260501214003 | 16 | 0.0 | 0.0 | 0.18 | 8.94 | 7.92 | 93 | 1010.6 | |
| 20260501213502 | 16 | 0.0 | 0.0 | 0.18 | 8.94 | 7.92 | 93 | 1010.6 | |
| 20260501213016 | 16 | 0.0 | 0.0 | 0.20 | 8.94 | 7.92 | 93 | 1010.7 | |
| 20260501212503 | 16 | 0.0 | 0.0 | 0.23 | 8.94 | 7.92 | 93 | 1010.6 | |
| 20260501212007 | 16 | 0.0 | 0.0 | 0.28 | 8.94 | 7.92 | 93 | 1010.7 | |
| 20260501211517 | 16 | 0.0 | 0.0 | 0.33 | 8.92 | 7.90 | 92 | 1011.0 | |
| 20260501211010 | 16 | 0.0 | 0.0 | 0.36 | 8.89 | 7.87 | 93 | 1010.7 | |
| 20260501210508 | 16 | 0.0 | 0.0 | 0.33 | 8.84 | 7.82 | 93 | 1010.7 | |
| 20260501210020 | 16 | 0.0 | 0.0 | 0.38 | 8.84 | 7.82 | 93 | 1010.6 | |
| 20260501205508 | 16 | 0.0 | 0.0 | 0.38 | 8.81 | 7.80 | 92 | 1010.2 | |
| 20260501205003 | 16 | 0.0 | 0.0 | 0.38 | 8.79 | 7.77 | 92 | 1010.0 | |
| 20260501204507 | 16 | 0.0 | 0.0 | 0.36 | 8.76 | 7.75 | 92 | 1009.7 | |
| 20260501203506 | 16 | 0.0 | 0.0 | 0.41 | 8.76 | 7.75 | 92 | 1009.8 | |
| 20260501203005 | 16 | 0.0 | 0.0 | 0.43 | 8.74 | 7.72 | 92 | 1009.7 | |
| 20260501202505 | 16 | 0.0 | 0.0 | 0.43 | 8.71 | 7.70 | 93 | 1009.6 | |
| 20260501202007 | 16 | 0.0 | 0.0 | 0.41 | 8.66 | 7.65 | 93 | 1009.6 | |
| 20260501201511 | 16 | 0.0 | 0.0 | 0.41 | 8.59 | 7.57 | 93 | 1009.5 | |
| 20260501201006 | 16 | 0.0 | 0.0 | 0.46 | 8.53 | 7.52 | 93 | 1009.5 | |
| 20260501200507 | 16 | 0.0 | 0.0 | 0.43 | 8.51 | 7.49 | 93 | 1009.3 | |
| 20260501200017 | 16 | 0.0 | 0.0 | 0.41 | 8.46 | 7.44 | 93 | 1009.0 | |
| 20260501195509 | 16 | 0.0 | 0.0 | 0.46 | 8.43 | 7.42 | 93 | 1009.0 | |
| 20260501195007 | 16 | 0.0 | 0.0 | 1.02 | 8.41 | 7.39 | 93 | 1009.5 | |
| 20260501194521 | 16 | 0.0 | 0.0 | 1.22 | 8.41 | 7.39 | 92 | 1009.3 | |
| 20260501194007 | 16 | 0.0 | 0.0 | 1.22 | 8.38 | 7.37 | 92 | 1009.3 | |
| 20260501193508 | 16 | 0.0 | 0.0 | 1.24 | 8.36 | 7.34 | 92 | 1009.1 | |
| 20260501193005 | 16 | 0.0 | 0.0 | 1.22 | 8.31 | 7.29 | 92 | 1009.6 | |
| 20260501192504 | 16 | 0.0 | 0.0 | 1.19 | 8.28 | 7.26 | 92 | 1009.5 | |
| 20260501192005 | 16 | 0.0 | 0.0 | 1.17 | 8.26 | 7.24 | 92 | 1009.1 | |
| 20260501191512 | 16 | 0.0 | 0.0 | 1.12 | 8.18 | 7.16 | 92 | 1009.3 | |
| 20260501191006 | 16 | 0.0 | 0.0 | 1.07 | 8.08 | 7.06 | 92 | 1009.5 | |
| 20260501190509 | 16 | 0.0 | 0.0 | 1.47 | 8.08 | 7.06 | 92 | 1009.6 | |
| 20260501190029 | 16 | 0.0 | 0.0 | 1.78 | 8.05 | 7.04 | 92 | 1009.5 | |
| 20260501185507 | 16 | 0.0 | 0.0 | 1.73 | 7.98 | 6.96 | 92 | 1009.6 | |
| 20260501185007 | 16 | 0.0 | 0.0 | 1.22 | 7.39 | 6.38 | 92 | 1009.4 | |
| 20260501184517 | 16 | 0.0 | 0.0 | 1.04 | 7.19 | 6.17 | 92 | 1010.5 | |
| 20260501184007 | 16 | 0.0 | 0.0 | 1.04 | 7.16 | 6.15 | 92 | 1009.4 | |
| 20260501183509 | 16 | 0.0 | 0.0 | 1.22 | 7.11 | 6.10 | 92 | 1009.4 | |
| 20260501183022 | 16 | 0.0 | 0.0 | 1.52 | 7.09 | 6.07 | 92 | 1009.9 | |
| 20260501182507 | 16 | 0.0 | 0.0 | 1.63 | 7.09 | 6.07 | 92 | 1009.2 | |
| 20260501182010 | 16 | 0.0 | 0.0 | 1.65 | 7.09 | 6.07 | 92 | 1008.3 | |
| 20260501181509 | 16 | 0.0 | 0.0 | 1.68 | 7.06 | 6.05 | 92 | 1007.9 | |
| 20260501181005 | 16 | 0.0 | 0.0 | 1.63 | 7.01 | 5.97 | 92 | 1008.6 | |
| 20260501180504 | 16 | 0.0 | 0.0 | 1.22 | 6.60 | 5.59 | 92 | 1009.3 | |
| 20260501180011 | 16 | 0.0 | 0.0 | 0.89 | 6.27 | 5.26 | 92 | 1009.5 | |
| 20260501175508 | 16 | 0.0 | 0.0 | 0.86 | 6.25 | 5.23 | 92 | 1008.9 | |
| 20260501175012 | 16 | 0.0 | 0.0 | 0.79 | 6.17 | 5.16 | 92 | 1009.2 | |
| 20260501174514 | 16 | 0.0 | 0.0 | 0.76 | 6.15 | 5.13 | 92 | 1009.2 | |
| 20260501174010 | 16 | 0.0 | 0.0 | 0.76 | 6.12 | 5.11 | 92 | 1009.3 | |
| 20260501173507 | 16 | 0.0 | 0.0 | 0.53 | 5.89 | 4.88 | 92 | 1009.6 |